User: anonymous   Login
Location: Bakov nad Jizerou
(50.4784°N, 14.9394°E)
Time: 02:23:22
(UTC+00:00)
Language:

Cosmos 1892 Rocket - Orbit

View from above orbital plane
View from above orbital plane
View from above satellite
View from above satellite

Ground track
Ground track

The orbit data is extracted from the following two-line orbital elements,

1 18422U 87088B   21259.50489740  .00000095  00000-0  87011-5 0  9990
2 18422  82.5141 162.1193 0019850  10.1967 162.7305 14.83088734810795
Epoch (UTC): 16 September 2021 12:07:03
Eccentricity: 0.0019850
inclination: 82.5141°
perigee height: 606 km
apogee height: 633 km
right ascension of ascending node: 162.1193°
argument of perigee: 10.1967°
revolutions per day: 14.83088734
mean anomaly at epoch: 162.7305°
orbit number at epoch: 81079

The dashed part of the orbit path shows where the satellite is in the earth's shadow,  

DLR